SCP
-0 0 0 0 0 0 1 1 1 1 1 1 2 2 2 2 2 1 1 1 1 1 1 1 1 1 1 1 1 1 1 1 1 0 0 0 0 1 1 1 1 1 0
0 0 -0 0 0 0 1 0 0 1 1 1 1 1 0 0 1 1 1 1 1 1 1 0 0 0 0 0 0 1 0 0 1 1 0 0 0 0 0 1 1 1 1
0 0 0 0 0 0 0 0 0 0 0 0 0 0 0 0 0 0 0 0 0 0 0 0 0 0 0 0 0 0 0 0 0 1 1 0 0 0 0 -0 0 1 1
0 0 0 0 0 0 0 0 0 0 0 0 0 0 0 0 0 0 0 0 0 0 0 0 0 0 0 0 0 0 0 0 0 0 0 1 1 1 0 0 1 1 1
0 0 0 0 0 0 0 0 0 0 0 0 0 0 0 0 0 0 0 0 0 0 0 0 0 0 0 0 0 0 0 0 0 0 0 1 1 1 1 0 0 1 1
0 0 0 0 0 0 0 0 0 0 0 0 0 0 0 0 0 0 0 0 0 0 0 0 0 0 0 0 0 0 0 0 0 0 0 0 0 0 1 2 1 0 1
0 0 0 0 0 0 0 0 0 0 0 0 0 0 0 0 0 0 0 0 0 0 0 0 0 0 0 0 0 0 0 0 0 0 0 0 0 0 0 1 1 1 0
0 0 0 0 0 0 0 0 0 0 0 0 0 0 0 0 0 0 0 0 0 0 0 0 0 0 0 0 0 0 0 0 0 0 1 0 0 0 1 1 1 1 1
0 0 0 0 0 0 0 0 0 0 0 0 0 0 0 0 0 0 0 0 0 0 0 0 0 0 0 0 0 0 0 0 0 0 1 1 0 0 0 2 2 1 1
0 0 0 0 0 0 0 0 0 0 0 0 0 0 0 0 0 0 0 0 0 0 0 0 0 0 0 0 0 0 0 0 0 0 1 1 0 0 0 1 2 1 1
0 0 0 0 0 0 0 0 0 0 0 0 0 0 0 0 0 0 0 0 0 0 0 0 0 0 0 0 0 0 0 0 0 0 0 0 1 0 0 1 1 1 1
0 0 0 0 0 0 0 0 0 0 0 0 0 0 0 0 0 0 0 0 0 0 0 0 0 0 0 0 0 0 0 0 0 0 0 0 0 0 1 1 1 1 0
0 0 0 0 0 0 0 0 0 0 0 0 0 0 0 0 0 0 0 0 0 0 0 0 0 0 0 0 0 0 0 0 0 0 0 0 0 0 0 0 1 1 0
0 0 0 0 0 0 0 0 0 0 0 0 0 0 0 0 0 0 0 0 0 0 0 0 0 0 0 0 0 0 0 0 0 0 0 0 0 0 0 0 0 0 0
0 0 0 0 0 0 0 0 0 0 0 0 0 0 0 0 0 0 0 0 0 0 0 0 0 0 0 0 0 0 0 0 0 0 0 0 0 0 0 0 0 0 0
0 0 0 0 0 0 0 0 0 0 0 0 0 0 0 0 0 0 0 0 0 0 0 0 0 0 0 0 0 0 0 0 0 0 0 0 0 0 0 0 0 0 0
0 0 0 0 0 0 0 0 0 0 0 0 0 0 0 0 0 0 0 0 0 0 0 0 0 0 0 0 0 0 0 0 0 0 0 0 0 0 0 0 0 0 0
0 0 0 0 0 0 0 0 0 0 0 0 0 0 0 0 0 0 0 0 0 0 0 0 0 0 0 0 0 0 0 0 0 0 0 0 0 0 0 0 0 0 0
0 0 0 0 0 0 0 0 0 0 0 0 0 0 0 0 0 0 0 0 0 0 0 0 0 0 0 0 0 0 0 0 0 0 0 0 0 0 0 0 0 0 0
0 0 0 0 0 0 0 0 0 0 0 0 0 0 0 0 0 0 0 0 0 0 0 0 0 0 0 0 0 0 0 0 0 0 0 0 -0 0 0 0 0 0 0
0 0 0 0 0 0 -0 -0 0 0 0 0 0 0 0 0 0 0 0 0 0 0 0 0 0 0 0 0 0 0 0 0 0 0 0 0 -0 -0 0 0 0 0 0
0 0 0 0 -0 0 -0 -0 -0 -0 0 0 0 0 0 0 0 0 0 0 0 0 0 0 0 0 0 0 0 0 0 0 0 -0 0 0 -0 0 0 0 0 0 0
0 0 -0 -0 -0 0 -0 -0 -0 -0 -0 0 0 0 0 0 0 0 0 0 0 0 0 0 0 0 0 0 -0 0 0 -0 0 0 -0 0 0 0 -0 -0 -0 -0 -0
0 -0 -0 -0 0 -0 -0 -0 -0 -0 -0 0 0 0 0 0 0 0 0 0 0 0 0 0 0 0 0 -0 -0 0 0 -0 0 -0 0 0 0 0 -0 -0 -0 -0 -0
0 -0 -0 -0 0 -0 -0 -0 0 -0 -0 -0 0 0 0 0 0 0 0 0 0 0 0 0 0 0 0 -0 -0 0 0 0 0 -0 -0 0 0 0 0 0 0 0 0
0 -0 -0 -0 -0 -0 0 -0 0 -0 -0 0 0 0 0 0 0 0 0 0 0 0 0 0 0 0 -0 -0 0 0 0 0 -0 -0 -0 0 0 0 0 0 0 0 0
Wind_Speed_500mb
85 64 57 63 38 28 31 32 38 43 43 38 39 42 37 31 29 24 20 18 20 24 26 26 28 31 34 37 41 44 47 50 44 52 54 47 54 66 65 68 66 65 67
55 70 65 59 47 56 47 42 38 35 32 34 35 34 31 24 15 9 6 9 14 20 24 28 32 35 41 45 45 47 51 48 50 44 46 41 48 47 55 50 56 60 55
74 81 76 67 59 60 53 45 35 26 26 28 29 28 22 14 7 8 15 21 25 28 29 33 38 41 44 47 48 46 48 46 43 43 43 32 44 45 42 39 42 45 53
66 70 63 65 60 50 42 35 34 32 29 21 15 13 10 5 11 19 23 24 27 28 29 31 35 38 41 44 46 47 46 43 40 38 42 54 62 60 56 50 37 43 50
43 46 51 50 39 37 45 45 40 35 30 24 17 9 8 8 13 18 23 28 34 38 41 44 43 44 47 50 52 50 49 43 37 36 41 49 60 68 73 67 62 61 56
34 36 40 47 52 51 45 41 35 32 28 20 18 19 19 25 29 33 37 42 45 49 51 54 59 61 63 62 61 62 59 56 51 45 43 45 49 53 57 67 65 65 66
43 51 53 53 51 46 40 37 34 33 30 25 27 29 33 39 42 45 48 53 58 62 66 68 72 74 76 78 76 75 73 68 63 62 53 50 54 57 65 78 80 78 69
36 40 45 43 41 38 34 31 29 25 25 25 26 29 33 37 40 45 51 58 65 71 76 77 80 82 83 83 85 87 86 82 77 73 68 61 56 58 63 72 77 73 67
25 29 32 32 31 29 26 24 24 25 25 26 28 31 35 41 47 52 59 67 74 80 85 88 91 91 89 87 85 87 92 92 88 84 79 71 60 59 61 74 78 76 65
20 20 22 24 24 23 21 19 17 17 20 25 30 36 45 54 61 69 76 82 87 89 90 89 88 88 88 91 91 91 87 93 93 84 79 77 62 62 60 69 78 82 84
24 25 24 24 20 16 13 12 15 22 30 37 45 52 59 67 72 77 81 83 82 78 74 68 69 71 71 70 71 77 84 85 85 77 74 72 73 64 60 66 70 76 81
22 21 21 16 10 9 14 21 28 36 44 51 58 65 70 74 77 78 77 74 70 64 61 62 66 68 67 67 67 70 72 75 76 72 72 72 65 65 65 62 71 74 76
25 20 12 7 8 14 22 31 39 46 53 60 65 70 73 74 74 73 69 64 59 56 56 55 54 51 49 51 58 60 60 63 68 72 70 71 66 66 61 61 63 71 82
16 10 3 8 17 26 35 43 49 55 61 65 68 71 72 70 65 64 60 55 51 48 45 47 52 50 50 51 52 53 55 53 56 64 69 68 70 70 62 61 62 69 78
10 0 8 15 25 36 43 50 56 60 63 68 71 68 62 58 58 54 52 44 38 42 49 58 58 54 53 52 50 53 56 60 64 64 59 66 73 75 71 62 64 70 76
3 10 18 28 37 47 55 59 61 64 64 63 63 58 51 52 52 51 46 39 47 55 60 61 57 56 58 59 65 61 58 57 57 61 67 73 64 69 69 71 70 68 77
13 21 32 40 48 52 55 60 63 63 60 58 54 48 49 51 49 42 40 46 53 59 61 57 61 71 72 65 63 63 64 59 65 61 56 61 59 60 61 63 64 64 73
19 29 38 45 49 52 55 58 58 58 57 53 47 47 48 50 40 42 48 54 57 54 61 65 75 72 72 70 71 63 63 57 56 59 56 56 51 56 58 55 24 25 45
30 36 40 44 50 52 52 54 57 56 51 46 45 46 48 43 42 48 54 58 59 64 64 61 76 73 76 71 67 64 57 51 49 50 49 47 48 54 46 44 50 53 43
28 32 37 40 40 42 46 49 51 48 46 48 47 47 45 42 45 49 58 68 62 71 69 71 64 68 63 53 51 51 49 49 37 34 44 36 43 36 58 61 49 56 44
29 34 35 36 38 42 46 49 50 49 48 46 46 48 41 42 43 51 63 68 64 72 62 71 64 59 53 52 51 46 39 35 36 37 34 38 39 20 16 22 26 24 10
34 38 38 37 40 46 50 53 53 51 47 45 46 44 39 40 40 52 60 67 62 67 69 67 64 44 51 44 40 20 23 33 35 35 26 22 12 35 42 48 46 35 34
35 39 42 46 47 49 49 52 52 49 48 47 46 45 43 40 42 53 59 63 57 58 67 60 50 52 41 39 42 51 31 37 42 28 25 33 42 22 21 23 27 47 42
35 40 48 52 54 51 48 47 49 47 48 47 45 46 45 39 42 51 57 49 50 53 54 54 49 41 32 47 51 48 25 43 35 10 57 46 21 13 25 30 42 36 36
33 35 50 55 56 51 49 48 48 47 48 46 44 41 39 40 49 56 52 46 38 41 47 49 35 38 43 50 53 28 26 35 20 50 48 34 19 24 31 33 33 33 33
32 36 50 58 58 52 48 49 46 44 45 45 39 38 40 45 49 52 56 34 28 35 34 36 35 37 48 53 51 7 36 34 32 40 42 25 18 31 28 35 37 37 38
Wind_Direction_500mb
223 232 242 240 276 255 251 223 211 209 213 203 207 213 211 220 244 240 234 237 246 258 269 279 285 286 285 286 287 287 285 284 286 289 286 285 288 283 280 278 275 273 267
215 222 226 239 227 243 221 210 208 207 196 196 204 205 212 203 189 198 248 275 281 282 285 288 288 287 286 285 285 286 287 285 285 273 286 291 292 281 289 285 277 271 270
217 227 233 242 229 213 208 205 205 189 168 167 167 158 156 158 194 267 284 285 284 284 286 289 290 290 291 291 294 295 290 285 279 270 266 281 273 290 288 290 282 271 273
237 243 224 208 201 198 189 181 162 144 132 140 163 178 183 216 274 281 278 281 284 285 287 292 294 296 295 291 292 292 295 292 285 282 271 264 269 274 286 273 278 283 271
198 200 194 191 178 162 148 146 148 156 168 173 165 165 204 252 281 278 280 280 280 284 283 283 280 282 285 285 285 284 285 283 279 279 281 278 276 272 269 277 273 274 272
157 159 153 148 148 148 152 155 166 170 176 190 206 221 234 245 250 256 259 263 267 269 270 273 274 273 271 270 273 276 277 277 277 276 278 278 272 272 266 266 268 265 268
137 139 144 149 152 157 165 173 183 189 197 208 225 236 247 254 259 264 269 271 273 274 273 272 271 269 268 268 266 264 264 266 269 275 275 279 277 273 269 265 264 265 264
134 141 153 159 165 174 184 191 197 205 214 223 236 248 256 265 272 275 280 282 284 284 283 281 278 274 271 268 265 263 263 263 263 264 267 274 277 277 272 268 263 262 265
130 148 160 170 177 182 184 192 205 217 231 245 255 265 274 277 280 283 284 283 283 282 281 279 278 275 273 270 267 264 262 262 262 262 263 263 266 272 274 276 268 255 256
151 157 163 168 172 177 184 195 211 231 250 265 275 282 287 289 289 289 289 289 288 287 286 284 283 280 276 271 268 264 264 263 261 260 260 259 260 268 272 278 270 260 254
161 163 163 165 171 184 207 239 269 284 289 292 293 292 293 295 296 296 296 295 292 292 291 291 291 291 289 285 278 270 264 261 261 258 257 257 260 262 267 274 274 264 257
140 147 158 171 196 245 276 290 295 298 299 300 301 302 303 303 302 301 299 297 295 291 291 294 294 294 291 288 283 279 272 264 258 257 255 256 258 261 265 270 277 265 260
140 144 146 179 247 279 293 299 303 305 306 306 306 306 306 305 304 304 302 298 293 291 294 296 297 295 293 293 291 282 277 271 262 256 256 255 255 258 261 266 270 275 261
146 153 205 298 302 307 310 310 310 309 309 309 309 308 307 306 305 304 302 297 291 293 297 296 294 289 287 289 290 284 280 276 272 262 257 258 258 256 258 264 268 275 262
142 89 324 319 317 316 315 314 314 312 311 311 310 308 305 304 303 304 304 298 295 297 297 298 298 292 287 288 286 294 289 283 277 263 256 261 259 257 259 263 269 276 262
48 342 330 322 321 320 318 317 314 312 312 310 309 309 306 304 305 306 302 301 305 303 301 301 296 291 289 285 292 293 294 287 281 279 270 256 260 262 266 270 273 264 254
351 336 328 325 322 320 317 313 310 311 310 309 308 306 309 309 307 305 307 306 305 310 306 300 299 299 300 295 295 291 295 290 278 275 276 263 263 269 270 276 267 256 247
337 327 323 319 317 314 312 309 309 309 311 310 306 307 309 306 308 309 307 310 311 304 307 306 310 304 303 302 300 292 291 288 282 272 268 259 265 266 272 264 241 295 250
323 320 320 318 317 317 315 313 312 311 312 309 305 307 308 305 306 307 315 313 311 311 311 309 311 307 304 295 293 287 288 287 280 270 250 255 267 273 259 246 264 265 263
327 323 320 321 320 321 321 317 316 311 310 311 307 307 304 301 306 316 322 318 313 318 319 318 311 311 308 305 297 288 285 283 272 245 241 252 265 271 255 263 259 254 232
339 335 332 327 327 326 326 323 320 317 314 311 311 308 302 303 317 326 317 316 313 316 318 321 314 317 313 307 301 293 281 255 252 243 243 260 251 256 228 191 199 158 159
349 345 339 335 334 335 332 328 324 319 316 312 315 308 301 311 316 312 318 319 318 317 317 321 325 317 314 313 318 321 253 240 238 238 252 272 250 157 152 118 119 104 95
356 352 346 342 343 341 337 328 326 322 318 316 316 314 307 313 307 319 320 322 324 326 322 323 322 316 327 343 341 325 274 218 225 243 271 140 150 132 173 195 179 164 154
358 357 355 350 348 343 338 334 332 327 320 316 317 316 314 308 310 316 325 325 328 327 332 329 322 320 325 336 337 346 212 202 208 201 144 161 173 330 146 154 157 158 159
352 355 358 355 353 347 344 342 339 335 331 325 320 323 319 317 313 317 321 327 329 327 328 334 327 327 319 327 345 341 196 192 177 153 182 194 199 140 135 136 144 150 162
360 358 3 359 359 356 352 350 347 344 338 336 335 330 328 325 324 324 326 331 337 334 333 335 333 331 320 336 352 174 179 181 176 187 184 181 174 148 139 135 134 130 129
Wind_Speed_850mb
85 64 57 63 38 28 31 32 38 43 43 38 39 42 37 31 29 24 20 18 20 24 26 26 28 31 34 37 41 44 47 50 44 52 54 47 54 66 65 68 66 65 67
55 70 65 59 47 56 47 42 38 35 32 34 35 34 31 24 15 9 6 9 14 20 24 28 32 35 41 45 45 47 51 48 50 44 46 41 48 47 55 50 56 60 55
74 81 76 67 59 60 53 45 35 26 26 28 29 28 22 14 7 8 15 21 25 28 29 33 38 41 44 47 48 46 48 46 43 43 43 32 44 45 42 39 42 45 53
66 70 63 65 60 50 42 35 34 32 29 21 15 13 10 5 11 19 23 24 27 28 29 31 35 38 41 44 46 47 46 43 40 38 42 54 62 60 56 50 37 43 50
43 46 51 50 39 37 45 45 40 35 30 24 17 9 8 8 13 18 23 28 34 38 41 44 43 44 47 50 52 50 49 43 37 36 41 49 60 68 73 67 62 61 56
34 36 40 47 52 51 45 41 35 32 28 20 18 19 19 25 29 33 37 42 45 49 51 54 59 61 63 62 61 62 59 56 51 45 43 45 49 53 57 67 65 65 66
43 51 53 53 51 46 40 37 34 33 30 25 27 29 33 39 42 45 48 53 58 62 66 68 72 74 76 78 76 75 73 68 63 62 53 50 54 57 65 78 80 78 69
36 40 45 43 41 38 34 31 29 25 25 25 26 29 33 37 40 45 51 58 65 71 76 77 80 82 83 83 85 87 86 82 77 73 68 61 56 58 63 72 77 73 67
25 29 32 32 31 29 26 24 24 25 25 26 28 31 35 41 47 52 59 67 74 80 85 88 91 91 89 87 85 87 92 92 88 84 79 71 60 59 61 74 78 76 65
20 20 22 24 24 23 21 19 17 17 20 25 30 36 45 54 61 69 76 82 87 89 90 89 88 88 88 91 91 91 87 93 93 84 79 77 62 62 60 69 78 82 84
24 25 24 24 20 16 13 12 15 22 30 37 45 52 59 67 72 77 81 83 82 78 74 68 69 71 71 70 71 77 84 85 85 77 74 72 73 64 60 66 70 76 81
22 21 21 16 10 9 14 21 28 36 44 51 58 65 70 74 77 78 77 74 70 64 61 62 66 68 67 67 67 70 72 75 76 72 72 72 65 65 65 62 71 74 76
25 20 12 7 8 14 22 31 39 46 53 60 65 70 73 74 74 73 69 64 59 56 56 55 54 51 49 51 58 60 60 63 68 72 70 71 66 66 61 61 63 71 82
16 10 3 8 17 26 35 43 49 55 61 65 68 71 72 70 65 64 60 55 51 48 45 47 52 50 50 51 52 53 55 53 56 64 69 68 70 70 62 61 62 69 78
10 0 8 15 25 36 43 50 56 60 63 68 71 68 62 58 58 54 52 44 38 42 49 58 58 54 53 52 50 53 56 60 64 64 59 66 73 75 71 62 64 70 76
3 10 18 28 37 47 55 59 61 64 64 63 63 58 51 52 52 51 46 39 47 55 60 61 57 56 58 59 65 61 58 57 57 61 67 73 64 69 69 71 70 68 77
13 21 32 40 48 52 55 60 63 63 60 58 54 48 49 51 49 42 40 46 53 59 61 57 61 71 72 65 63 63 64 59 65 61 56 61 59 60 61 63 64 64 73
19 29 38 45 49 52 55 58 58 58 57 53 47 47 48 50 40 42 48 54 57 54 61 65 75 72 72 70 71 63 63 57 56 59 56 56 51 56 58 55 24 25 45
30 36 40 44 50 52 52 54 57 56 51 46 45 46 48 43 42 48 54 58 59 64 64 61 76 73 76 71 67 64 57 51 49 50 49 47 48 54 46 44 50 53 43
28 32 37 40 40 42 46 49 51 48 46 48 47 47 45 42 45 49 58 68 62 71 69 71 64 68 63 53 51 51 49 49 37 34 44 36 43 36 58 61 49 56 44
29 34 35 36 38 42 46 49 50 49 48 46 46 48 41 42 43 51 63 68 64 72 62 71 64 59 53 52 51 46 39 35 36 37 34 38 39 20 16 22 26 24 10
34 38 38 37 40 46 50 53 53 51 47 45 46 44 39 40 40 52 60 67 62 67 69 67 64 44 51 44 40 20 23 33 35 35 26 22 12 35 42 48 46 35 34
35 39 42 46 47 49 49 52 52 49 48 47 46 45 43 40 42 53 59 63 57 58 67 60 50 52 41 39 42 51 31 37 42 28 25 33 42 22 21 23 27 47 42
35 40 48 52 54 51 48 47 49 47 48 47 45 46 45 39 42 51 57 49 50 53 54 54 49 41 32 47 51 48 25 43 35 10 57 46 21 13 25 30 42 36 36
33 35 50 55 56 51 49 48 48 47 48 46 44 41 39 40 49 56 52 46 38 41 47 49 35 38 43 50 53 28 26 35 20 50 48 34 19 24 31 33 33 33 33
32 36 50 58 58 52 48 49 46 44 45 45 39 38 40 45 49 52 56 34 28 35 34 36 35 37 48 53 51 7 36 34 32 40 42 25 18 31 28 35 37 37 38
Wind_Direction_850mb
223 232 242 240 276 255 251 223 211 209 213 203 207 213 211 220 244 240 234 237 246 258 269 279 285 286 285 286 287 287 285 284 286 289 286 285 288 283 280 278 275 273 267
215 222 226 239 227 243 221 210 208 207 196 196 204 205 212 203 189 198 248 275 281 282 285 288 288 287 286 285 285 286 287 285 285 273 286 291 292 281 289 285 277 271 270
217 227 233 242 229 213 208 205 205 189 168 167 167 158 156 158 194 267 284 285 284 284 286 289 290 290 291 291 294 295 290 285 279 270 266 281 273 290 288 290 282 271 273
237 243 224 208 201 198 189 181 162 144 132 140 163 178 183 216 274 281 278 281 284 285 287 292 294 296 295 291 292 292 295 292 285 282 271 264 269 274 286 273 278 283 271
198 200 194 191 178 162 148 146 148 156 168 173 165 165 204 252 281 278 280 280 280 284 283 283 280 282 285 285 285 284 285 283 279 279 281 278 276 272 269 277 273 274 272
157 159 153 148 148 148 152 155 166 170 176 190 206 221 234 245 250 256 259 263 267 269 270 273 274 273 271 270 273 276 277 277 277 276 278 278 272 272 266 266 268 265 268
137 139 144 149 152 157 165 173 183 189 197 208 225 236 247 254 259 264 269 271 273 274 273 272 271 269 268 268 266 264 264 266 269 275 275 279 277 273 269 265 264 265 264
134 141 153 159 165 174 184 191 197 205 214 223 236 248 256 265 272 275 280 282 284 284 283 281 278 274 271 268 265 263 263 263 263 264 267 274 277 277 272 268 263 262 265
130 148 160 170 177 182 184 192 205 217 231 245 255 265 274 277 280 283 284 283 283 282 281 279 278 275 273 270 267 264 262 262 262 262 263 263 266 272 274 276 268 255 256
151 157 163 168 172 177 184 195 211 231 250 265 275 282 287 289 289 289 289 289 288 287 286 284 283 280 276 271 268 264 264 263 261 260 260 259 260 268 272 278 270 260 254
161 163 163 165 171 184 207 239 269 284 289 292 293 292 293 295 296 296 296 295 292 292 291 291 291 291 289 285 278 270 264 261 261 258 257 257 260 262 267 274 274 264 257
140 147 158 171 196 245 276 290 295 298 299 300 301 302 303 303 302 301 299 297 295 291 291 294 294 294 291 288 283 279 272 264 258 257 255 256 258 261 265 270 277 265 260
140 144 146 179 247 279 293 299 303 305 306 306 306 306 306 305 304 304 302 298 293 291 294 296 297 295 293 293 291 282 277 271 262 256 256 255 255 258 261 266 270 275 261
146 153 205 298 302 307 310 310 310 309 309 309 309 308 307 306 305 304 302 297 291 293 297 296 294 289 287 289 290 284 280 276 272 262 257 258 258 256 258 264 268 275 262
142 89 324 319 317 316 315 314 314 312 311 311 310 308 305 304 303 304 304 298 295 297 297 298 298 292 287 288 286 294 289 283 277 263 256 261 259 257 259 263 269 276 262
48 342 330 322 321 320 318 317 314 312 312 310 309 309 306 304 305 306 302 301 305 303 301 301 296 291 289 285 292 293 294 287 281 279 270 256 260 262 266 270 273 264 254
351 336 328 325 322 320 317 313 310 311 310 309 308 306 309 309 307 305 307 306 305 310 306 300 299 299 300 295 295 291 295 290 278 275 276 263 263 269 270 276 267 256 247
337 327 323 319 317 314 312 309 309 309 311 310 306 307 309 306 308 309 307 310 311 304 307 306 310 304 303 302 300 292 291 288 282 272 268 259 265 266 272 264 241 295 250
323 320 320 318 317 317 315 313 312 311 312 309 305 307 308 305 306 307 315 313 311 311 311 309 311 307 304 295 293 287 288 287 280 270 250 255 267 273 259 246 264 265 263
327 323 320 321 320 321 321 317 316 311 310 311 307 307 304 301 306 316 322 318 313 318 319 318 311 311 308 305 297 288 285 283 272 245 241 252 265 271 255 263 259 254 232
339 335 332 327 327 326 326 323 320 317 314 311 311 308 302 303 317 326 317 316 313 316 318 321 314 317 313 307 301 293 281 255 252 243 243 260 251 256 228 191 199 158 159
349 345 339 335 334 335 332 328 324 319 316 312 315 308 301 311 316 312 318 319 318 317 317 321 325 317 314 313 318 321 253 240 238 238 252 272 250 157 152 118 119 104 95
356 352 346 342 343 341 337 328 326 322 318 316 316 314 307 313 307 319 320 322 324 326 322 323 322 316 327 343 341 325 274 218 225 243 271 140 150 132 173 195 179 164 154
358 357 355 350 348 343 338 334 332 327 320 316 317 316 314 308 310 316 325 325 328 327 332 329 322 320 325 336 337 346 212 202 208 201 144 161 173 330 146 154 157 158 159
352 355 358 355 353 347 344 342 339 335 331 325 320 323 319 317 313 317 321 327 329 327 328 334 327 327 319 327 345 341 196 192 177 153 182 194 199 140 135 136 144 150 162
360 358 3 359 359 356 352 350 347 344 338 336 335 330 328 325 324 324 326 331 337 334 333 335 333 331 320 336 352 174 179 181 176 187 184 181 174 148 139 135 134 130 129